Total_Precipitation_Accumulation
1.03 1.05 1.04 1.01 0.91 0.90 0.95 0.96 0.95 0.95 0.99 0.98 0.89 0.82 0.89 0.89 0.85 0.91 0.96 1.02 1.10 1.25 1.40 1.53 1.68 1.93 2.21 2.23 2.17 2.04 1.90 1.73 1.48 1.34 1.16 1.08 1.36 1.44 1.37 1.23 1.19 1.15 0.93
0.96 0.98 0.97 0.88 0.82 0.79 0.77 0.74 0.66 0.64 0.67 0.76 0.84 0.79 0.78 0.80 0.82 0.88 0.90 0.94 0.97 1.05 1.15 1.27 1.44 1.74 2.07 2.29 2.37 2.27 2.11 1.93 1.77 1.61 1.30 1.07 1.18 1.49 1.63 1.57 1.33 1.15 1.03
1.05 0.89 0.80 0.76 0.72 0.71 0.62 0.58 0.55 0.50 0.50 0.54 0.63 0.64 0.73 0.80 0.83 0.85 0.87 0.91 0.93 1.02 1.16 1.21 1.27 1.46 1.66 1.87 2.05 2.18 2.16 2.13 2.07 1.82 1.53 1.27 1.21 1.33 1.57 1.59 1.52 1.45 1.24
1.16 1.03 0.87 0.78 0.70 0.65 0.58 0.55 0.51 0.49 0.52 0.58 0.70 0.74 0.70 0.68 0.73 0.84 0.88 0.84 0.83 0.87 0.96 1.05 1.15 1.20 1.35 1.49 1.60 1.79 2.00 2.22 2.28 2.12 1.86 1.54 1.42 1.30 1.40 1.55 1.63 1.56 1.46
1.11 1.09 0.93 0.86 0.79 0.66 0.60 0.61 0.58 0.61 0.57 0.59 0.70 0.81 0.87 0.83 0.80 0.89 0.86 0.84 0.84 0.83 0.88 0.88 0.95 0.97 1.03 1.21 1.26 1.47 1.79 2.05 2.16 2.22 2.10 1.79 1.54 1.36 1.16 1.25 1.49 1.70 1.68
0.76 0.83 0.79 0.70 0.61 0.58 0.58 0.56 0.52 0.51 0.47 0.47 0.51 0.58 0.68 0.72 0.93 0.89 0.74 0.70 0.75 0.82 0.87 0.87 0.89 0.83 0.81 0.87 1.01 1.13 1.43 1.64 1.77 1.83 1.86 1.70 1.49 1.36 1.31 1.27 1.33 1.47 1.52
0.48 0.57 0.56 0.50 0.44 0.41 0.45 0.46 0.43 0.39 0.40 0.38 0.37 0.38 0.44 0.60 0.68 0.52 0.51 0.57 0.71 0.83 0.90 0.92 0.88 0.84 0.88 0.89 0.91 0.92 0.99 1.16 1.37 1.56 1.58 1.48 1.53 1.44 1.37 1.27 1.28 1.29 1.28
0.23 0.27 0.29 0.29 0.28 0.29 0.32 0.32 0.33 0.32 0.30 0.29 0.37 0.44 0.46 0.48 0.54 0.44 0.43 0.54 0.73 0.87 0.87 0.83 0.89 0.91 0.93 1.00 0.93 1.00 0.95 0.93 1.02 1.07 1.20 1.39 1.53 1.68 1.65 1.54 1.55 1.49 1.41
0.07 0.09 0.11 0.13 0.15 0.18 0.19 0.22 0.30 0.33 0.34 0.37 0.49 0.56 0.50 0.42 0.46 0.48 0.53 0.68 0.81 0.89 0.86 0.85 0.93 0.97 1.10 1.15 1.05 1.10 1.06 1.02 0.99 1.10 1.19 1.28 1.36 1.48 1.61 1.62 1.59 1.56 1.44
0.01 0.01 0.02 0.02 0.03 0.06 0.09 0.11 0.17 0.24 0.31 0.39 0.41 0.38 0.38 0.44 0.51 0.50 0.63 0.81 0.93 1.03 0.99 0.98 1.17 1.12 1.09 1.04 1.02 1.16 1.13 0.98 0.91 0.96 1.01 1.07 1.10 1.20 1.32 1.35 1.46 1.52 1.43
0.01 0.01 0.01 0.01 0.01 0.01 0.02 0.03 0.06 0.11 0.15 0.18 0.19 0.23 0.30 0.46 0.52 0.56 0.75 0.85 0.91 1.06 1.08 1.05 0.98 1.11 1.05 0.97 0.97 1.02 1.16 1.03 0.96 1.00 1.00 1.00 1.01 1.03 1.08 1.14 1.25 1.35 1.38
0.01 0.01 0.01 0.01 0.01 0.01 0.02 0.02 0.02 0.04 0.07 0.10 0.13 0.17 0.23 0.31 0.39 0.46 0.60 0.73 0.82 0.99 1.06 0.97 0.87 1.10 1.06 0.96 0.88 0.90 1.04 1.10 1.09 1.12 1.11 1.03 0.94 0.91 0.89 0.95 1.04 1.15 1.23
0.01 0.01 0.01 0.01 0.01 0.01 0.02 0.02 0.02 0.04 0.06 0.08 0.12 0.19 0.25 0.30 0.32 0.39 0.47 0.56 0.68 0.87 0.92 0.94 0.95 0.99 0.91 0.87 0.94 0.97 0.99 1.01 1.09 1.14 1.04 0.89 0.82 0.79 0.84 0.94 1.06 1.15 1.22
0.00 0.01 0.01 0.01 0.02 0.01 0.02 0.03 0.03 0.03 0.06 0.10 0.17 0.23 0.27 0.30 0.32 0.40 0.48 0.52 0.61 0.71 0.73 0.77 0.81 0.78 0.77 0.81 0.87 0.96 1.01 1.06 1.07 1.01 0.90 0.77 0.76 0.80 0.80 0.83 0.95 1.09 1.22
0.00 0.00 0.01 0.01 0.02 0.02 0.02 0.02 0.03 0.03 0.06 0.12 0.16 0.20 0.21 0.24 0.28 0.37 0.50 0.58 0.68 0.78 0.80 0.73 0.75 0.75 0.74 0.74 0.79 0.83 0.86 0.86 0.88 0.86 0.83 0.82 0.80 0.81 0.79 0.77 0.82 0.88 0.91
0.00 0.00 0.01 0.01 0.02 0.03 0.04 0.03 0.02 0.02 0.04 0.06 0.07 0.10 0.17 0.20 0.18 0.21 0.32 0.47 0.63 0.84 1.07 1.07 1.07 1.01 0.92 0.82 0.74 0.68 0.66 0.67 0.70 0.76 0.78 0.76 0.75 0.76 0.80 0.81 0.83 0.86 0.84
0.00 0.00 0.00 0.01 0.02 0.03 0.05 0.09 0.10 0.07 0.03 0.03 0.04 0.07 0.13 0.18 0.18 0.22 0.29 0.34 0.46 0.76 1.12 1.13 1.11 0.97 0.83 0.76 0.66 0.55 0.50 0.52 0.59 0.60 0.64 0.67 0.66 0.67 0.72 0.76 0.77 0.81 0.81
0.00 0.01 0.01 0.02 0.03 0.03 0.04 0.09 0.19 0.25 0.20 0.09 0.05 0.06 0.11 0.19 0.24 0.32 0.42 0.52 0.58 0.72 0.83 0.82 0.75 0.67 0.60 0.51 0.48 0.45 0.41 0.45 0.53 0.54 0.55 0.55 0.54 0.57 0.60 0.67 0.70 0.70 0.73
0.01 0.01 0.04 0.06 0.04 0.03 0.05 0.13 0.18 0.11 0.10 0.12 0.11 0.07 0.08 0.11 0.16 0.23 0.35 0.46 0.48 0.50 0.51 0.46 0.39 0.36 0.36 0.34 0.34 0.35 0.35 0.38 0.43 0.50 0.52 0.49 0.47 0.48 0.51 0.55 0.61 0.68 0.68
0.00 0.01 0.03 0.08 0.09 0.05 0.06 0.11 0.10 0.08 0.10 0.12 0.13 0.11 0.11 0.12 0.14 0.17 0.22 0.26 0.27 0.28 0.28 0.27 0.25 0.24 0.26 0.26 0.27 0.28 0.30 0.33 0.37 0.42 0.44 0.47 0.46 0.44 0.45 0.48 0.52 0.55 0.55
0.00 0.01 0.02 0.05 0.08 0.05 0.06 0.07 0.06 0.07 0.10 0.11 0.11 0.10 0.12 0.17 0.17 0.17 0.17 0.17 0.19 0.21 0.23 0.24 0.23 0.23 0.25 0.26 0.28 0.30 0.34 0.36 0.36 0.41 0.41 0.43 0.46 0.47 0.45 0.46 0.48 0.48 0.49
0.01 0.01 0.02 0.05 0.06 0.04 0.04 0.07 0.08 0.07 0.07 0.09 0.10 0.10 0.13 0.18 0.19 0.18 0.16 0.16 0.16 0.18 0.24 0.27 0.28 0.29 0.28 0.29 0.31 0.34 0.35 0.37 0.38 0.39 0.43 0.42 0.42 0.43 0.45 0.45 0.47 0.47 0.46
0.03 0.03 0.03 0.05 0.06 0.05 0.04 0.05 0.09 0.11 0.09 0.10 0.11 0.11 0.13 0.16 0.17 0.21 0.21 0.20 0.23 0.25 0.24 0.25 0.29 0.31 0.29 0.30 0.32 0.36 0.40 0.40 0.41 0.43 0.46 0.44 0.40 0.41 0.44 0.43 0.44 0.46 0.46
0.03 0.03 0.03 0.05 0.06 0.06 0.06 0.07 0.07 0.07 0.10 0.13 0.13 0.13 0.15 0.17 0.19 0.18 0.19 0.24 0.26 0.25 0.25 0.25 0.26 0.29 0.30 0.31 0.33 0.35 0.37 0.41 0.44 0.46 0.48 0.48 0.45 0.42 0.44 0.46 0.46 0.48 0.52
0.04 0.04 0.05 0.06 0.08 0.08 0.08 0.09 0.08 0.08 0.11 0.15 0.13 0.13 0.13 0.15 0.16 0.15 0.16 0.21 0.24 0.23 0.22 0.23 0.24 0.27 0.28 0.29 0.32 0.34 0.39 0.43 0.46 0.47 0.48 0.51 0.50 0.48 0.46 0.49 0.54 0.56 0.60
0.06 0.06 0.07 0.08 0.09 0.10 0.11 0.12 0.12 0.13 0.14 0.14 0.13 0.15 0.16 0.17 0.19 0.18 0.18 0.19 0.21 0.22 0.22 0.23 0.24 0.26 0.27 0.28 0.32 0.38 0.41 0.38 0.40 0.44 0.46 0.51 0.54 0.53 0.51 0.51 0.52 0.54 0.57